Regional Weather Roundup
Issued by NWS

Home | Current Version | Previous Version | Graphics & Text | Print | Product List | Glossary On
Versions: 1 2 3 4 5 6 7 8 9 10 11 12 13 14 15 16 17 18 19 20 21 22 23 24 25 26 27 28 29 30 31 32 33 34 35 36 37 38 39 40 41 42 43 44 45 46 47 48 49 50
000
ASUS43 KIND 212309
RWRIN

WEATHER ROUNDUP FOR INDIANA
NATIONAL WEATHER SERVICE INDIANAPOLIS IN
700 PM EDT THU MAY 21 2015

NOTE: "FAIR" INDICATES FEW OR NO CLOUDS BELOW 12,000 FEET WITH NO
SIGNIFICANT WEATHER AND/OR OBSTRUCTIONS TO VISIBILITY.

* - STATION DOES NOT REPORT WEATHER SUCH AS PRECIPITATION OR FOG.

+ - STATION NOT QUALITY CONTROLLED BY THE NATIONAL WEATHER SERVICE.
    USE DATA WITH CAUTION...ESPECIALLY DEWPOINT AND RELATIVE
    HUMIDITY OBSERVATIONS.

INZ001>003-010>013-019-020-220000-
NORTHWEST INDIANA

CITY           SKY/WX    TMP DP  RH WIND       PRES   REMARKS
GARY /AIRPORT/ SUNNY     68  32  26 W14G25    30.04F
KNOX *+        SUNNY     64  34  32 NW6       30.03S
LA PORTE +     SUNNY     66  33  29 NW8G16    30.04F
MICHIGAN CITY+ SUNNY     64  32  29 W8        30.04F
MONTICELLO +   MOSUNNY   65  38  36 W8G18     30.05F
RENSSELAER +   SUNNY     66  32  28 W10       30.05F
VALPARAISO     SUNNY     66  32  28 W13       30.04F

$$

LMZ046-743>745-220000-
SOUTHERN LAKE MICHIGAN

STATION/POSITION TIME  TEMP    WIND        PRES    WAVE
                       AIR SEA DIR/SP/G            HT
                 (UTC) (F)     (DEG/KT/KT) (MB)    (FT)
BURNS HARBOR     2300   68      CALM  /  2 1017.6F
MICHIGAN CITY    2300   61     220/  6/  7   N/A
5NW MICH CITY    2300   59 54  220/  4/  6   N/A     0

$$

INZ004-005-014>016-021>024-220000-
NORTH CENTRAL INDIANA

CITY           SKY/WX    TMP DP  RH WIND       PRES   REMARKS
GOSHEN         SUNNY     62  34  35 NW15      30.03F
LOGANSPORT +   MOSUNNY   63  32  31 W8        30.06F
PERU/GRISSOM   SUNNY     64  38  38 NW13G18   30.04F
ROCHESTER +    SUNNY     66  36  32 NW12      30.05F
SOUTH BEND     SUNNY     65  29  25 NW13      30.04F
WARSAW +       SUNNY     63  34  34 W14G21    30.04S

$$

INZ006>009-017-018-025>027-220000-
NORTHEAST INDIANA

CITY           SKY/WX    TMP DP  RH WIND       PRES   REMARKS
ANGOLA *+      SUNNY     63  52  67 W12       30.01S
AUBURN +       SUNNY     63  32  31 W12G21    30.03S
FORT WAYNE     MOSUNNY   62  40  44 W12       30.04F
HUNTINGTON +   SUNNY     61  37  39 W8        30.04F

$$

INZ028-029-035-036-043>045-051>053-220000-
WEST CENTRAL INDIANA

CITY           SKY/WX    TMP DP  RH WIND       PRES   REMARKS
CRAWFORDSVL +  MOSUNNY   61  29  30 W13       30.09S
GREENCASTLE +  MOSUNNY   61  30  31 NW8       30.10F
LAFAYETTE      MOSUNNY   64  35  34 W13       30.06F
TERRE HAUTE    MOSUNNY   62  43  49 W13       30.11F

$$

INZ030>032-037>040-046>048-054>057-064-065-220000-
CENTRAL INDIANA

CITY           SKY/WX    TMP DP  RH WIND       PRES   REMARKS
CP ATTERBURY + SUNNY     61  41  48 W5        30.11S
FISHERS *+     SUNNY     61  41  48 NW12G17   30.08
FRANKFORT +    SUNNY     65  37  34 W13G24    30.09S
GREENWOOD *+   MOSUNNY   63  32  31 W8        30.09F
INDIANAPOLIS   MOSUNNY   63  35  35 W14       30.07F
-EAGLE CREEK   MOSUNNY   63  36  36 W14G22    30.07F
KOKOMO *+      SUNNY     64  37  36 NW16      30.05F
MARION +       SUNNY     62  34  34 NW12      30.06F
MT COMFORT *+  SUNNY     63  21  20 NW12      30.08F
SHELBYVILLE    SUNNY     64  37  36 NW9       30.08F
ZIONSVILLE +   MOSUNNY   64  33  32 W15G24    30.08F

$$

INZ033-034-041-042-049-050-058-059-220000-
EAST CENTRAL INDIANA

CITY           SKY/WX    TMP DP  RH WIND       PRES   REMARKS
MUNCIE         SUNNY     61  37  41 NW13      30.06F

$$

INZ060-061-067>069-081>083-085>088-220000-
SOUTHWEST INDIANA

CITY           SKY/WX    TMP DP  RH WIND       PRES   REMARKS
EVANSVILLE     MOSUNNY   60  44  55 N8        30.16F
HUNTINGBURG *+ MOSUNNY   57  45  62 N12       30.15F
WASHINGTON +   MOSUNNY   60  38  43 NW10      30.14F

$$

INZ062-063-066-070>080-084-089>092-220000-
SOUTH CENTRAL AND SOUTHEAST INDIANA

CITY           SKY/WX    TMP DP  RH WIND       PRES   REMARKS
BLOOMINGTON    SUNNY     60  41  49 W7        30.11F
MADISON *+     MOSUNNY   55  37  50 NW6       30.13S
NORTH VERNON + SUNNY     59  41  51 NW8       30.11F
SEYMOUR +      MOSUNNY   61  41  48 NW12      30.12S

$$




USA.gov is the U.S. government's official web portal to all federal, state and local government web resources and services.